FW3318 Weather Reports


Display with metric or nautical units.
time (UTC)temp
F
wind
direction
speed
MPH
gust
MPH
rain 1hr
in
rain 24hr
in
rain mn
in
humidity
%
barometer
mb
20260507164000 38 111 1.0 4.0 0.00 0.00 0.00 75 1017.4
20260507163602 38 111 0.0 4.0 0.00 0.00 0.00 75 1017.4
20260507163101 38 42 1.0 4.0 0.00 0.00 0.00 75 1017.5
20260507162558 38 42 2.0 4.0 0.00 0.00 0.00 75 1017.5
20260507162056 38 302 2.0 6.0 0.00 0.00 0.00 77 1017.4
20260507161601 37 99 1.0 6.0 0.00 0.00 0.00 78 1017.4
20260507161054 36 62 1.0 4.0 0.00 0.00 0.00 79 1017.3
20260507160554 35 35 1.0 4.0 0.00 0.00 0.00 81 1017.2
20260507160054 34 22 2.0 4.0 0.00 0.00 0.00 82 1017.2
20260507155551 33 83 0.0 0.0 0.00 0.00 0.00 83 1017.3
20260507155050 33 83 0.0 2.0 0.00 0.00 0.00 83 1017.2
20260507154550 33 83 0.0 2.0 0.00 0.00 0.00 83 1017.3
20260507154050 33 84 0.0 2.0 0.00 0.00 0.00 83 1017.2
20260507153548 32 84 0.0 1.0 0.00 0.00 0.00 84 1017.3
20260507153058 32 84 0.0 1.0 0.00 0.00 0.00 84 1017.2
20260507152548 32 84 0.0 2.0 0.00 0.00 0.00 85 1017.1
20260507152048 31 84 0.0 2.0 0.00 0.00 0.00 86 1017.1
20260507151549 31 85 0.0 2.0 0.00 0.00 0.00 86 1017.1
20260507151045 31 84 0.0 2.0 0.00 0.00 0.00 86 1016.9
20260507150544 31 87 0.0 0.0 0.00 0.00 0.00 86 1017.0
20260507150044 31 87 0.0 0.0 0.00 0.00 0.00 86 1017.1
20260507145544 31 87 0.0 0.0 0.00 0.00 0.00 86 1017.1
20260507145043 31 87 0.0 0.0 0.00 0.00 0.00 85 1017.1
20260507144542 31 87 0.0 0.0 0.00 0.00 0.00 85 1017.1
20260507144042 31 87 0.0 0.0 0.00 0.00 0.00 85 1017.2
20260507143541 31 87 0.0 0.0 0.00 0.00 0.00 85 1017.2
20260507143048 31 87 0.0 0.0 0.00 0.00 0.00 85 1017.2
20260507142541 31 87 0.0 0.0 0.00 0.00 0.00 85 1017.3
20260507142040 31 87 0.0 0.0 0.00 0.00 0.00 85 1017.3
20260507141544 31 87 0.0 0.0 0.00 0.00 0.00 85 1017.2
20260507141040 31 87 0.0 0.0 0.00 0.00 0.00 84 1017.3
20260507140541 31 87 0.0 0.0 0.00 0.00 0.00 84 1017.3
20260507140038 31 87 0.0 0.0 0.00 0.00 0.00 84 1017.2
20260507135538 31 87 0.0 0.0 0.00 0.00 0.00 84 1017.2
20260507135037 31 87 0.0 0.0 0.00 0.00 0.00 84 1017.4
20260507134537 31 87 0.0 0.0 0.00 0.00 0.00 84 1017.3
20260507134036 31 87 0.0 0.0 0.00 0.00 0.00 85 1017.4
20260507133536 31 87 0.0 0.0 0.00 0.00 0.00 84 1017.3
20260507133036 31 87 0.0 0.0 0.00 0.00 0.00 84 1017.3
20260507132534 31 87 0.0 0.0 0.00 0.00 0.00 85 1017.1
20260507132033 31 87 0.0 0.0 0.00 0.00 0.00 85 1017.2
20260507131535 31 87 0.0 0.0 0.00 0.00 0.00 84 1017.1
20260507131031 31 87 0.0 0.0 0.00 0.00 0.00 84 1017.0
20260507130529 32 87 0.0 0.0 0.00 0.00 0.00 84 1017.0
20260507130029 32 87 0.0 0.0 0.00 0.00 0.00 84 1017.0
20260507125528 32 87 0.0 0.0 0.00 0.00 0.00 84 1017.1
20260507125027 32 87 0.0 0.0 0.00 0.00 0.00 84 1017.1
20260507124544 32 87 0.0 0.0 0.00 0.00 0.00 84 1017.1
20260507124026 32 87 0.0 0.0 0.00 0.00 0.00 84 1017.1
20260507123526 32 87 0.0 0.0 0.00 0.00 0.00 84 1017.2
20260507123028 32 87 0.0 0.0 0.00 0.00 0.00 84 1017.1
20260507122525 32 87 0.0 0.0 0.00 0.00 0.00 85 1017.0
20260507122025 32 87 0.0 0.0 0.00 0.00 0.00 85 1016.9
20260507121537 32 87 0.0 0.0 0.00 0.00 0.00 85 1016.9
20260507121025 32 87 0.0 0.0 0.00 0.00 0.00 85 1017.0
20260507120527 32 87 0.0 0.0 0.00 0.00 0.00 85 1016.9
20260507120023 32 87 0.0 0.0 0.00 0.00 0.00 85 1016.9
20260507115523 32 87 0.0 0.0 0.00 0.00 0.00 85 1016.9
20260507115026 32 87 0.0 0.0 0.00 0.00 0.00 85 1016.9
20260507114525 32 87 0.0 0.0 0.00 0.00 0.00 85 1016.9
20260507114021 32 87 0.0 0.0 0.00 0.00 0.00 84 1016.8
20260507113521 32 87 0.0 0.0 0.00 0.00 0.00 84 1016.8
20260507113023 32 87 0.0 0.0 0.00 0.00 0.00 84 1016.8
20260507112520 32 87 0.0 0.0 0.00 0.00 0.00 84 1016.8
20260507112020 32 87 0.0 0.0 0.00 0.00 0.00 84 1016.8
20260507111519 32 87 0.0 0.0 0.00 0.00 0.00 84 1016.7
20260507111018 33 87 0.0 0.0 0.00 0.00 0.00 84 1016.5
20260507110517 33 87 0.0 0.0 0.00 0.00 0.00 83 1016.7
20260507110028 33 87 0.0 0.0 0.00 0.00 0.00 83 1016.7
20260507105516 33 87 0.0 0.0 0.00 0.00 0.00 83 1016.6
20260507105016 33 87 0.0 0.0 0.00 0.00 0.00 83 1016.8
20260507104516 33 87 0.0 0.0 0.00 0.00 0.00 82 1016.8
20260507104020 33 87 0.0 0.0 0.00 0.00 0.00 82 1016.8
20260507103515 33 87 0.0 0.0 0.00 0.00 0.00 82 1016.8
20260507103014 33 87 0.0 0.0 0.00 0.00 0.00 81 1016.7
20260507102514 33 87 0.0 0.0 0.00 0.00 0.00 81 1016.8
20260507102013 33 87 0.0 0.0 0.00 0.00 0.00 80 1016.6
20260507101512 33 87 0.0 0.0 0.00 0.00 0.00 80 1016.4
20260507101011 34 87 0.0 0.0 0.00 0.00 0.00 80 1016.5
20260507100510 34 87 0.0 0.0 0.00 0.00 0.00 79 1016.5
20260507100018 34 87 0.0 0.0 0.00 0.00 0.00 79 1016.5
20260507095510 34 87 0.0 0.0 0.00 0.00 0.00 79 1016.4
20260507095009 34 87 0.0 0.0 0.00 0.00 0.00 79 1016.4
20260507094508 34 87 0.0 0.0 0.00 0.00 0.00 79 1016.4
20260507094008 34 87 0.0 0.0 0.00 0.00 0.00 79 1016.5
20260507093511 35 86 0.0 0.0 0.00 0.00 0.00 79 1016.4
20260507093006 35 87 0.0 0.0 0.00 0.00 0.00 78 1016.4
20260507092506 35 87 0.0 2.0 0.00 0.00 0.00 78 1016.3
20260507092004 35 87 0.0 2.0 0.00 0.00 0.00 78 1016.2
20260507091505 35 87 1.0 3.0 0.00 0.00 0.00 78 1016.2
20260507091006 35 86 1.0 3.0 0.00 0.00 0.00 78 1016.2
20260507090507 35 87 0.0 2.0 0.00 0.00 0.00 77 1016.0
20260507090006 35 87 0.0 2.0 0.00 0.00 0.00 77 1016.0
20260507085501 35 216 0.0 2.0 0.00 0.00 0.00 77 1015.9
20260507085100 35 216 0.0 2.0 0.00 0.00 0.00 77 1016.0
20260507084600 35 217 0.0 0.0 0.00 0.00 0.00 77 1016.0
20260507084059 35 217 0.0 0.0 0.00 0.00 0.00 77 1015.8
20260507083558 35 217 0.0 0.0 0.00 0.00 0.00 76 1015.8
20260507083058 35 217 0.0 0.0 0.00 0.00 0.00 76 1015.8
20260507082557 35 217 0.0 0.0 0.00 0.00 0.00 75 1015.9
20260507082057 35 217 0.0 0.0 0.00 0.00 0.00 75 1015.8
20260507081556 35 217 0.0 0.0 0.00 0.00 0.00 75 1015.8
20260507081055 36 217 0.0 0.0 0.00 0.00 0.00 74 1015.8
20260507080555 36 217 0.0 0.0 0.00 0.00 0.00 73 1015.8
20260507080059 36 217 0.0 0.0 0.00 0.00 0.00 73 1015.8
20260507075553 36 217 0.0 0.0 0.00 0.00 0.00 73 1015.7
20260507075056 36 217 0.0 0.0 0.00 0.00 0.00 72 1015.7
20260507074606 36 217 0.0 0.0 0.00 0.00 0.00 72 1015.7
20260507074052 36 217 0.0 0.0 0.00 0.00 0.00 72 1015.7
20260507073555 36 217 0.0 0.0 0.00 0.00 0.00 71 1015.6
20260507073053 37 217 0.0 0.0 0.00 0.00 0.00 71 1015.6
20260507072552 37 217 0.0 0.0 0.00 0.00 0.00 71 1015.7
20260507072051 37 217 0.0 0.0 0.00 0.00 0.00 71 1015.6
20260507071651 37 217 0.0 0.0 0.00 0.00 0.00 71 1015.6
20260507071051 37 217 0.0 2.0 0.00 0.00 0.00 70 1015.6
20260507070550 37 217 0.0 2.0 0.00 0.00 0.00 70 1015.6
20260507070106 37 217 0.0 2.0 0.00 0.00 0.00 71 1015.5
20260507065551 37 211 0.0 2.0 0.00 0.00 0.00 70 1015.4
20260507065049 37 211 0.0 2.0 0.00 0.00 0.00 69 1015.5
20260507064549 37 211 0.0 4.0 0.00 0.00 0.00 69 1015.4
20260507064049 37 211 1.0 4.0 0.00 0.00 0.00 69 1015.3
20260507063548 37 197 0.0 0.0 0.00 0.00 0.00 68 1015.4
20260507063056 37 111 0.0 0.0 0.00 0.00 0.00 68 1015.2
20260507062548 38 111 0.0 0.0 0.00 0.00 0.00 67 1015.2
20260507062048 38 111 0.0 0.0 0.00 0.00 0.00 66 1015.2
20260507061549 38 111 0.0 0.0 0.00 0.00 0.00 65 1015.2
20260507061048 38 111 0.0 0.0 0.00 0.00 0.00 65 1015.2
20260507060550 38 111 0.0 0.0 0.00 0.00 0.00 66 1015.2
20260507060047 38 194 0.0 0.0 0.00 0.00 0.00 65 1015.2
20260507055546 39 194 0.0 0.0 0.00 0.00 0.00 65 1015.1
20260507055045 39 194 0.0 0.0 0.00 0.00 0.00 65 1015.0
20260507054548 39 194 0.0 2.0 0.00 0.00 0.00 65 1015.0
20260507054045 39 194 0.0 2.0 0.00 0.00 0.00 66 1015.1
20260507053544 39 167 0.0 1.0 0.00 0.00 0.00 65 1014.7
20260507053044 39 167 0.0 3.0 0.00 0.00 0.00 63 1014.6
20260507052548 39 167 1.0 3.0 0.00 0.00 0.00 63 1014.7
20260507052043 40 223 0.0 1.0 0.00 0.00 0.00 62 1014.7
20260507051543 40 223 0.0 1.0 0.00 0.00 0.00 61 1014.7
20260507051042 40 223 0.0 0.0 0.00 0.00 0.00 59 1014.6
20260507050542 40 223 0.0 0.0 0.00 0.00 0.00 59 1014.6
20260507050042 40 223 0.0 0.0 0.00 0.00 0.00 59 1014.6
20260507045542 40 227 0.0 2.0 0.00 0.00 0.00 57 1014.6
20260507045041 40 227 0.0 3.0 0.00 0.00 0.00 56 1014.6
20260507044543 40 228 1.0 3.0 0.00 0.00 0.00 55 1014.6
20260507044045 40 254 0.0 2.0 0.00 0.00 0.00 59 1014.6
20260507043541 40 254 0.0 2.0 0.00 0.00 0.00 59 1014.6
20260507043041 40 261 0.0 1.0 0.00 0.00 0.00 57 1014.6
20260507042542 41 261 0.0 2.0 0.00 0.00 0.00 57 1014.6
20260507042040 41 261 0.0 2.0 0.00 0.00 0.00 55 1014.6
20260507041540 41 261 1.0 2.0 0.00 0.00 0.00 53 1014.5
20260507041040 41 261 0.0 2.0 0.00 0.00 0.00 54 1014.6
20260507040539 41 261 0.0 7.0 0.00 0.00 0.00 53 1014.6
20260507040039 42 233 2.0 7.0 0.00 0.00 0.00 53 1014.5
20260507035539 42 283 1.0 4.0 0.00 0.00 0.00 53 1014.5
20260507035038 42 284 1.0 3.0 0.00 0.00 0.00 52 1014.5
20260507034540 42 149 1.0 6.0 0.00 0.00 0.00 51 1014.5
20260507034037 42 159 0.0 6.0 0.00 0.00 0.00 50 1014.4
20260507033537 43 180 1.0 7.0 0.00 0.00 0.00 50 1014.4
20260507033037 43 217 2.0 7.0 0.00 0.00 0.00 51 1014.5
20260507032539 43 153 2.0 5.0 0.00 0.00 0.00 50 1014.4
20260507032036 43 213 2.0 6.0 0.00 0.00 0.00 50 1014.4
20260507031537 43 190 1.0 8.0 0.00 0.00 0.00 51 1014.3
20260507031036 43 173 2.0 8.0 0.00 0.00 0.00 48 1014.2
20260507030536 43 202 1.0 9.0 0.00 0.00 0.00 49 1014.2
20260507030035 43 260 1.0 9.0 0.00 0.00 0.00 49 1014.2
20260507025534 43 299 2.0 8.0 0.00 0.00 0.00 49 1014.2
20260507025034 43 280 3.0 8.0 0.00 0.00 0.00 50 1014.2
20260507024537 43 180 1.0 8.0 0.00 0.00 0.00 46 1014.1
20260507024034 43 204 2.0 8.0 0.00 0.00 0.00 48 1014.0
20260507023533 43 257 1.0 8.0 0.00 0.00 0.00 49 1014.0
20260507023035 43 220 2.0 5.0 0.00 0.00 0.00 50 1014.0
20260507022534 43 172 2.0 6.0 0.00 0.00 0.00 48 1014.0
20260507022034 43 163 1.0 5.0 0.00 0.00 0.00 48 1013.9
20260507021533 44 180 2.0 5.0 0.00 0.00 0.00 50 1013.9
20260507021036 44 267 1.0 4.0 0.00 0.00 0.00 49 1013.9
20260507020533 44 239 1.0 5.0 0.00 0.00 0.00 49 1013.9
20260507020041 44 227 2.0 5.0 0.00 0.00 0.00 50 1013.9
20260507015533 44 279 1.0 5.0 0.00 0.00 0.00 50 1013.9
20260507015032 43 244 2.0 7.0 0.00 0.00 0.00 50 1013.9
20260507014531 43 307 1.0 7.0 0.00 0.00 0.00 49 1013.8
20260507014033 43 330 2.0 5.0 0.00 0.00 0.00 48 1013.8
20260507013531 43 267 1.0 5.0 0.00 0.00 0.00 50 1013.9
20260507013046 43 238 2.0 6.0 0.00 0.00 0.00 51 1013.9
20260507012531 44 209 1.0 9.0 0.00 0.00 0.00 51 1013.9
20260507012031 44 214 3.0 12.0 0.00 0.00 0.00 50 1013.8
20260507011533 44 237 2.0 12.0 0.00 0.00 0.00 49 1013.7
20260507011033 44 188 3.0 7.0 0.00 0.00 0.00 49 1013.7
20260507010532 45 226 2.0 6.0 0.00 0.00 0.00 49 1013.7
20260507010036 45 213 2.0 7.0 0.00 0.00 0.00 47 1013.6
20260507005529 44 263 1.0 8.0 0.00 0.00 0.00 50 1013.6
20260507005030 45 211 2.0 8.0 0.00 0.00 0.00 50 1013.6
20260507004529 45 283 2.0 7.0 0.00 0.00 0.00 50 1013.7
20260507004030 44 259 1.0 7.0 0.00 0.00 0.00 49 1013.6
20260507003530 45 232 3.0 6.0 0.00 0.00 0.00 49 1013.6
20260507003028 44 215 1.0 6.0 0.00 0.00 0.00 50 1013.6
20260507002528 44 206 2.0 6.0 0.00 0.00 0.00 48 1013.6
20260507002027 44 235 1.0 8.0 0.00 0.00 0.00 50 1013.6
20260507001531 44 263 2.0 7.0 0.00 0.00 0.00 49 1013.6
20260507001028 44 173 3.0 7.0 0.00 0.00 0.00 50 1013.6
20260507000526 44 232 2.0 5.0 0.00 0.00 0.00 50 1013.7
20260507000026 44 94 2.0 6.0 0.00 0.00 0.00 49 1013.6
20260506235525 45 188 1.0 10.0 0.00 0.00 0.00 49 1013.6
20260506235025 45 271 3.0 10.0 0.00 0.00 0.00 50 1013.6
20260506234534 44 16 1.0 8.0 0.00 0.00 0.00 48 1013.6
20260506234025 45 148 3.0 7.0 0.00 0.00 0.00 46 1013.5
20260506233525 45 153 2.0 8.0 0.00 0.00 0.00 48 1013.5
20260506233036 45 207 1.0 7.0 0.00 0.00 0.00 48 1013.5
20260506232524 46 142 2.0 7.0 0.00 0.00 0.00 46 1013.5
20260506232024 46 237 1.0 7.0 0.00 0.00 0.00 48 1013.5
20260506231528 45 234 3.0 7.0 0.00 0.00 0.00 47 1013.4
20260506231022 45 145 2.0 5.0 0.00 0.00 0.00 49 1013.4
20260506230522 45 233 2.0 9.0 0.00 0.00 0.00 47 1013.5
20260506230026 45 224 3.0 9.0 0.00 0.00 0.00 45 1013.4
20260506225521 45 188 3.0 9.0 0.00 0.00 0.00 44 1013.5
20260506225020 45 198 2.0 7.0 0.00 0.00 0.00 52 1013.4
20260506224521 45 139 2.0 8.0 0.00 0.00 0.00 51 1013.4
20260506224021 45 222 2.0 10.0 0.00 0.00 0.00 52 1013.4
20260506223519 44 167 1.0 10.0 0.00 0.00 0.00 49 1013.5
20260506223018 44 248 3.0 8.0 0.00 0.00 0.00 50 1013.5
20260506222518 44 54 1.0 5.0 0.00 0.00 0.00 52 1013.4
20260506222020 44 226 2.0 6.0 0.00 0.00 0.00 50 1013.4
20260506221517 44 263 2.0 6.0 0.00 0.00 0.00 54 1013.4
20260506221017 44 159 2.0 8.0 0.00 0.00 0.00 52 1013.4
20260506220517 44 141 3.0 8.0 0.00 0.00 0.00 53 1013.4
20260506220023 44 254 2.0 8.0 0.00 0.00 0.00 54 1013.4
20260506215515 44 270 3.0 7.0 0.00 0.00 0.00 58 1013.4
20260506215012 43 179 3.0 8.0 0.00 0.00 0.00 56 1013.5
20260506214513 43 172 3.0 7.0 0.00 0.00 0.00 58 1013.5
20260506214014 43 179 2.0 7.0 0.00 0.00 0.00 59 1013.5
20260506213511 43 157 2.0 6.0 0.00 0.00 0.00 57 1013.4
20260506213010 43 166 3.0 8.0 0.00 0.00 0.00 57 1013.5
20260506212508 42 294 3.0 8.0 0.00 0.00 0.00 58 1013.4
20260506212007 42 238 2.0 5.0 0.00 0.00 0.00 60 1013.4
20260506211511 42 290 2.0 5.0 0.00 0.00 0.00 62 1013.3
20260506211007 42 338 3.0 5.0 0.00 0.00 0.00 60 1013.3
20260506210512 42 355 1.0 7.0 0.00 0.00 0.00 61 1013.3
20260506210011 42 207 2.0 5.0 0.00 0.00 0.00 61 1013.3
20260506205505 42 225 2.0 10.0 0.00 0.00 0.00 61 1013.2
20260506205010 42 184 1.0 10.0 0.00 0.00 0.00 63 1013.3
20260506204505 42 183 2.0 9.0 0.00 0.00 0.00 62 1013.4
20260506204005 41 159 1.0 9.0 0.00 0.00 0.00 62 1013.3
20260506203502 42 137 2.0 6.0 0.00 0.00 0.00 63 1013.4
20260506203002 41 249 1.0 11.0 0.00 0.00 0.00 63 1013.4
20260506202501 41 129 3.0 11.0 0.00 0.00 0.00 61 1013.4
20260506202001 41 279 3.0 9.0 0.00 0.00 0.00 63 1013.3
20260506201603 41 252 3.0 7.0 0.00 0.00 0.00 68 1013.3
20260506201059 40 205 2.0 7.0 0.00 0.00 0.00 66 1013.3
20260506200557 40 177 3.0 8.0 0.00 0.00 0.00 67 1013.3
20260506200056 40 238 2.0 7.0 0.00 0.00 0.00 66 1013.2
20260506195556 40 300 2.0 8.0 0.00 0.00 0.00 66 1013.4
20260506195056 40 151 2.0 9.0 0.00 0.00 0.00 68 1013.3
20260506194555 40 191 3.0 9.0 0.00 0.00 0.00 69 1013.2
20260506194055 39 228 1.0 8.0 0.00 0.00 0.00 70 1013.2
20260506193553 39 210 3.0 7.0 0.00 0.00 0.00 69 1013.1
20260506193052 39 138 2.0 8.0 0.00 0.00 0.00 73 1013.1
20260506192552 39 285 2.0 8.0 0.00 0.00 0.00 74 1013.1
20260506192052 39 207 2.0 9.0 0.00 0.00 0.00 75 1013.1
20260506191550 39 266 3.0 9.0 0.00 0.00 0.00 77 1013.0
20260506191050 38 157 2.0 10.0 0.00 0.00 0.00 76 1013.0
20260506190549 38 198 2.0 9.0 0.00 0.00 0.00 80 1013.0
20260506190046 38 202 3.0 8.0 0.00 0.00 0.00 82 1013.0
20260506185545 37 203 1.0 7.0 0.00 0.00 0.00 82 1013.0
20260506185046 37 203 2.0 7.0 0.00 0.00 0.00 82 1012.8
20260506184544 37 271 1.0 8.0 0.00 0.00 0.00 84 1012.8
20260506184043 36 192 1.0 7.0 0.00 0.00 0.00 86 1012.8
20260506183542 36 221 2.0 7.0 0.00 0.00 0.00 86 1012.7
20260506183041 36 207 3.0 7.0 0.00 0.00 0.00 86 1012.7
20260506182539 36 265 1.0 7.0 0.00 0.00 0.00 88 1012.7
20260506182039 36 178 3.0 7.0 0.00 0.00 0.00 89 1012.8
20260506181538 36 221 2.0 5.0 0.00 0.00 0.00 87 1012.7
20260506181041 36 197 2.0 5.0 0.00 0.00 0.00 87 1012.7
20260506180538 36 186 1.0 5.0 0.00 0.00 0.00 88 1012.7
20260506180040 36 206 1.0 5.0 0.00 0.00 0.00 88 1012.7
20260506175534 36 233 2.0 5.0 0.00 0.00 0.00 89 1012.6
20260506175035 36 201 2.0 5.0 0.00 0.00 0.00 89 1012.5
20260506174533 35 198 1.0 4.0 0.00 0.00 0.00 88 1012.5
20260506174033 35 226 1.0 7.0 0.00 0.00 0.00 88 1012.5
20260506173532 35 179 3.0 7.0 0.00 0.00 0.00 88 1012.5
20260506173038 35 206 1.0 7.0 0.00 0.00 0.00 88 1012.3
20260506172531 35 147 2.0 7.0 0.00 0.00 0.00 88 1012.4
20260506172029 36 180 2.0 8.0 0.00 0.00 0.00 87 1012.3
20260506171529 36 263 2.0 8.0 0.00 0.00 0.00 88 1012.3
20260506171028 35 221 1.0 5.0 0.00 0.00 0.00 88 1012.3
20260506170527 35 226 1.0 5.0 0.00 0.00 0.00 88 1012.2
20260506170030 35 226 2.0 5.0 0.00 0.00 0.00 87 1012.2
20260506165526 35 214 3.0 6.0 0.00 0.00 0.00 87 1012.1
20260506165026 35 209 1.0 11.0 0.00 0.00 0.00 88 1012.1
20260506164525 35 207 3.0 11.0 0.00 0.00 0.00 88 1012.1